Time,TemperatureF,DewpointF,PressureIn,WindDirection,WindDirectionDegrees,WindSpeedMPH,WindSpeedGustMPH,Humidity,HourlyPrecipIn,Conditions,Clouds,dailyrainin,SoftwareType,DateUTC
2013-07-11 00:00:00,77.9,72.0,29.87,WSW,244,0.0,4.0,82,0.00,,---,0.00,VWS V14.00,2013-07-11 05:00:00,
2013-07-11 00:01:00,77.9,72.0,29.87,WSW,244,0.0,4.0,82,0.00,,---,0.00,VWS V14.00,2013-07-11 05:01:00,
2013-07-11 00:05:00,77.8,71.9,29.86,WSW,244,0.0,0.0,82,0.00,,---,0.00,VWS V14.00,2013-07-11 05:05:00,
2013-07-11 00:06:00,77.8,71.9,29.86,WSW,244,0.0,0.0,82,0.00,,---,0.00,VWS V14.00,2013-07-11 05:06:00,
2013-07-11 00:10:00,77.7,71.8,29.86,WSW,244,0.0,0.0,82,0.00,,---,0.00,VWS V14.00,2013-07-11 05:10:00,
2013-07-11 00:11:00,77.7,71.8,29.86,WSW,244,0.0,0.0,82,0.00,,---,0.00,VWS V14.00,2013-07-11 05:11:00,
2013-07-11 00:15:00,77.6,71.7,29.87,WSW,244,0.0,0.0,82,0.00,,---,0.00,VWS V14.00,2013-07-11 05:15:00,
2013-07-11 00:16:00,77.6,71.7,29.87,WSW,244,0.0,0.0,82,0.00,,---,0.00,VWS V14.00,2013-07-11 05:16:00,
2013-07-11 00:20:00,77.6,71.7,29.86,WSW,244,0.0,0.0,82,0.00,,---,0.00,VWS V14.00,2013-07-11 05:20:00,
2013-07-11 00:21:00,77.6,71.7,29.86,WSW,244,0.0,0.0,82,0.00,,---,0.00,VWS V14.00,2013-07-11 05:21:00,
2013-07-11 00:25:00,77.5,71.6,29.86,WSW,244,0.0,0.0,82,0.00,,---,0.00,VWS V14.00,2013-07-11 05:25:00,
2013-07-11 00:26:00,77.5,71.6,29.86,WSW,244,0.0,0.0,82,0.00,,---,0.00,VWS V14.00,2013-07-11 05:26:00,
2013-07-11 00:30:00,77.5,71.6,29.86,WSW,244,0.0,0.0,82,0.00,,---,0.00,VWS V14.00,2013-07-11 05:30:00,
2013-07-11 00:31:00,77.5,71.6,29.86,WSW,244,0.0,0.0,82,0.00,,---,0.00,VWS V14.00,2013-07-11 05:31:00,
2013-07-11 00:35:00,77.5,71.6,29.86,WSW,244,0.0,0.0,82,0.00,,---,0.00,VWS V14.00,2013-07-11 05:35:00,
2013-07-11 00:36:00,77.5,71.6,29.86,WSW,244,0.0,0.0,82,0.00,,---,0.00,VWS V14.00,2013-07-11 05:36:00,
2013-07-11 00:40:00,77.4,71.5,29.87,WSW,244,0.0,0.0,82,0.00,,---,0.00,VWS V14.00,2013-07-11 05:40:00,
2013-07-11 00:41:00,77.4,71.5,29.87,WSW,244,0.0,0.0,82,0.00,,---,0.00,VWS V14.00,2013-07-11 05:41:00,
2013-07-11 00:45:00,77.2,71.6,29.87,SW,231,0.0,5.0,83,0.00,,---,0.00,VWS V14.00,2013-07-11 05:45:00,
2013-07-11 00:46:00,77.2,71.3,29.87,SW,231,0.0,5.0,82,0.00,,---,0.00,VWS V14.00,2013-07-11 05:46:00,
2013-07-11 00:50:00,77.0,71.4,29.87,SW,231,0.0,0.0,83,0.00,,---,0.00,VWS V14.00,2013-07-11 05:50:00,
2013-07-11 00:51:00,77.0,71.4,29.87,SW,231,0.0,0.0,83,0.00,,---,0.00,VWS V14.00,2013-07-11 05:51:00,
2013-07-11 00:55:00,76.8,71.2,29.88,SW,231,0.0,0.0,83,0.00,,---,0.00,VWS V14.00,2013-07-11 05:55:00,
2013-07-11 00:56:00,76.9,71.3,29.88,SW,231,0.0,0.0,83,0.00,,---,0.00,VWS V14.00,2013-07-11 05:56:00,
2013-07-11 01:00:00,76.6,71.4,29.87,SW,231,0.0,0.0,84,0.00,,---,0.00,VWS V14.00,2013-07-11 06:00:00,
2013-07-11 01:01:00,76.6,71.1,29.87,SW,231,0.0,0.0,83,0.00,,---,0.00,VWS V14.00,2013-07-11 06:01:00,
2013-07-11 01:05:00,76.5,71.3,29.88,SW,231,0.0,0.0,84,0.00,,---,0.00,VWS V14.00,2013-07-11 06:05:00,
2013-07-11 01:06:00,76.5,71.3,29.87,SW,231,0.0,0.0,84,0.00,,---,0.00,VWS V14.00,2013-07-11 06:06:00,
2013-07-11 01:10:00,76.3,71.1,29.88,SW,231,0.0,0.0,84,0.00,,---,0.00,VWS V14.00,2013-07-11 06:10:00,
2013-07-11 01:11:00,76.4,71.2,29.88,SW,231,0.0,0.0,84,0.00,,---,0.00,VWS V14.00,2013-07-11 06:11:00,
2013-07-11 01:15:00,76.1,70.9,29.87,SW,231,0.0,0.0,84,0.00,,---,0.00,VWS V14.00,2013-07-11 06:15:00,
2013-07-11 01:16:00,76.1,70.9,29.88,SW,231,0.0,0.0,84,0.00,,---,0.00,VWS V14.00,2013-07-11 06:16:00,
2013-07-11 01:20:00,76.0,70.8,29.88,SW,231,0.0,0.0,84,0.00,,---,0.00,VWS V14.00,2013-07-11 06:20:00,
2013-07-11 01:21:00,76.0,70.8,29.88,SW,231,0.0,0.0,84,0.00,,---,0.00,VWS V14.00,2013-07-11 06:21:00,
2013-07-11 01:25:00,75.9,70.7,29.88,SW,231,0.0,0.0,84,0.00,,---,0.00,VWS V14.00,2013-07-11 06:25:00,
2013-07-11 01:26:00,75.9,70.7,29.88,SW,231,0.0,0.0,84,0.00,,---,0.00,VWS V14.00,2013-07-11 06:26:00,
2013-07-11 01:30:00,75.7,70.5,29.89,SW,231,2.0,4.0,84,0.00,,---,0.00,VWS V14.00,2013-07-11 06:30:00,
2013-07-11 01:31:00,75.8,71.0,29.89,SW,231,4.0,4.0,85,0.00,,---,0.00,VWS V14.00,2013-07-11 06:31:00,
2013-07-11 01:35:00,75.4,70.6,29.88,SW,231,0.0,3.0,85,0.00,,---,0.00,VWS V14.00,2013-07-11 06:35:00,
2013-07-11 01:36:00,75.4,70.6,29.89,SW,231,0.0,3.0,85,0.00,,---,0.00,VWS V14.00,2013-07-11 06:36:00,
2013-07-11 01:40:00,75.2,70.4,29.89,SW,231,0.0,0.0,85,0.00,,---,0.00,VWS V14.00,2013-07-11 06:40:00,
2013-07-11 01:41:00,75.3,70.5,29.89,SW,231,0.0,0.0,85,0.00,,---,0.00,VWS V14.00,2013-07-11 06:41:00,
2013-07-11 01:45:00,75.1,70.3,29.89,SW,231,0.0,0.0,85,0.00,,---,0.00,VWS V14.00,2013-07-11 06:45:00,
2013-07-11 01:46:00,75.1,70.3,29.89,SW,231,0.0,0.0,85,0.00,,---,0.00,VWS V14.00,2013-07-11 06:46:00,
2013-07-11 01:50:00,75.0,70.5,29.88,SW,231,0.0,0.0,86,0.00,,---,0.00,VWS V14.00,2013-07-11 06:50:00,
2013-07-11 01:51:00,75.0,70.5,29.88,SW,231,0.0,0.0,86,0.00,,---,0.00,VWS V14.00,2013-07-11 06:51:00,
2013-07-11 01:55:00,74.9,70.4,29.89,SW,231,0.0,0.0,86,0.00,,---,0.00,VWS V14.00,2013-07-11 06:55:00,
2013-07-11 01:56:00,74.9,70.4,29.89,SW,231,0.0,0.0,86,0.00,,---,0.00,VWS V14.00,2013-07-11 06:56:00,
2013-07-11 02:00:00,74.8,70.3,29.89,SW,231,0.0,4.0,86,0.00,,---,0.00,VWS V14.00,2013-07-11 07:00:00,
2013-07-11 02:01:00,74.8,70.3,29.89,SW,231,2.0,4.0,86,0.00,,---,0.00,VWS V14.00,2013-07-11 07:01:00,
2013-07-11 02:05:00,74.8,70.7,29.89,SW,231,0.0,0.0,87,0.00,,---,0.00,VWS V14.00,2013-07-11 07:05:00,
2013-07-11 02:06:00,74.8,70.7,29.89,SW,231,0.0,0.0,87,0.00,,---,0.00,VWS V14.00,2013-07-11 07:06:00,
2013-07-11 02:10:00,74.8,70.7,29.89,SW,231,0.0,0.0,87,0.00,,---,0.00,VWS V14.00,2013-07-11 07:10:00,
2013-07-11 02:11:00,74.8,70.7,29.89,SW,231,0.0,0.0,87,0.00,,---,0.00,VWS V14.00,2013-07-11 07:11:00,
2013-07-11 02:15:00,74.7,70.6,29.89,SW,231,0.0,0.0,87,0.00,,---,0.00,VWS V14.00,2013-07-11 07:15:00,
2013-07-11 02:16:00,74.7,70.6,29.89,SW,231,0.0,0.0,87,0.00,,---,0.00,VWS V14.00,2013-07-11 07:16:00,
2013-07-11 02:20:00,74.7,70.6,29.89,SW,231,0.0,0.0,87,0.00,,---,0.00,VWS V14.00,2013-07-11 07:20:00,
2013-07-11 02:21:00,74.7,70.6,29.89,SW,231,0.0,0.0,87,0.00,,---,0.00,VWS V14.00,2013-07-11 07:21:00,
2013-07-11 02:25:00,74.7,70.6,29.89,SW,231,0.0,0.0,87,0.00,,---,0.00,VWS V14.00,2013-07-11 07:25:00,
2013-07-11 02:26:00,74.7,70.6,29.89,SW,231,0.0,0.0,87,0.00,,---,0.00,VWS V14.00,2013-07-11 07:26:00,
2013-07-11 02:30:00,74.7,70.6,29.89,SW,231,0.0,0.0,87,0.00,,---,0.00,VWS V14.00,2013-07-11 07:30:00,
2013-07-11 02:31:00,74.7,70.6,29.88,SW,231,0.0,0.0,87,0.00,,---,0.00,VWS V14.00,2013-07-11 07:31:00,
2013-07-11 02:35:00,74.5,70.4,29.89,SW,231,0.0,0.0,87,0.00,,---,0.00,VWS V14.00,2013-07-11 07:35:00,
2013-07-11 02:36:00,74.5,70.4,29.89,SW,231,0.0,0.0,87,0.00,,---,0.00,VWS V14.00,2013-07-11 07:36:00,
2013-07-11 02:40:00,74.4,70.3,29.89,SW,231,0.0,0.0,87,0.00,,---,0.00,VWS V14.00,2013-07-11 07:40:00,
2013-07-11 02:41:00,74.4,70.3,29.89,SW,231,0.0,0.0,87,0.00,,---,0.00,VWS V14.00,2013-07-11 07:41:00,
2013-07-11 02:45:00,74.3,70.2,29.89,SW,231,0.0,0.0,87,0.00,,---,0.00,VWS V14.00,2013-07-11 07:45:00,
2013-07-11 02:46:00,74.4,70.3,29.89,SW,231,0.0,0.0,87,0.00,,---,0.00,VWS V14.00,2013-07-11 07:46:00,
2013-07-11 02:50:00,74.3,70.2,29.89,SW,231,0.0,0.0,87,0.00,,---,0.00,VWS V14.00,2013-07-11 07:50:00,
2013-07-11 02:51:00,74.3,70.2,29.89,SW,231,0.0,0.0,87,0.00,,---,0.00,VWS V14.00,2013-07-11 07:51:00,
2013-07-11 02:55:00,74.2,70.4,29.89,SW,231,2.0,3.0,88,0.00,,---,0.00,VWS V14.00,2013-07-11 07:55:00,
2013-07-11 02:56:00,74.2,70.1,29.89,SW,231,0.0,0.0,87,0.00,,---,0.00,VWS V14.00,2013-07-11 07:56:00,
2013-07-11 03:00:00,74.2,70.4,29.89,SW,231,0.0,4.0,88,0.00,,---,0.00,VWS V14.00,2013-07-11 08:00:00,
2013-07-11 03:01:00,74.2,70.4,29.89,SW,231,3.0,4.0,88,0.00,,---,0.00,VWS V14.00,2013-07-11 08:01:00,
2013-07-11 03:05:00,74.2,70.4,29.89,SW,231,0.0,0.0,88,0.00,,---,0.00,VWS V14.00,2013-07-11 08:05:00,
2013-07-11 03:06:00,74.2,70.4,29.89,SW,231,0.0,0.0,88,0.00,,---,0.00,VWS V14.00,2013-07-11 08:06:00,
2013-07-11 03:10:00,74.2,70.4,29.89,SW,231,0.0,0.0,88,0.00,,---,0.00,VWS V14.00,2013-07-11 08:10:00,
2013-07-11 03:11:00,74.2,70.4,29.89,SW,231,0.0,0.0,88,0.00,,---,0.00,VWS V14.00,2013-07-11 08:11:00,
2013-07-11 03:15:00,74.2,70.4,29.89,SW,231,0.0,0.0,88,0.00,,---,0.00,VWS V14.00,2013-07-11 08:15:00,
2013-07-11 03:16:00,74.2,70.4,29.89,SW,231,0.0,0.0,88,0.00,,---,0.00,VWS V14.00,2013-07-11 08:16:00,
2013-07-11 03:20:00,74.2,70.8,29.89,SW,231,0.0,0.0,89,0.00,,---,0.00,VWS V14.00,2013-07-11 08:20:00,
2013-07-11 03:21:00,74.2,70.8,29.89,SW,231,0.0,0.0,89,0.00,,---,0.00,VWS V14.00,2013-07-11 08:21:00,
2013-07-11 03:25:00,74.2,70.8,29.89,SW,231,0.0,0.0,89,0.00,,---,0.00,VWS V14.00,2013-07-11 08:25:00,
2013-07-11 03:26:00,74.2,70.8,29.89,SW,231,0.0,0.0,89,0.00,,---,0.00,VWS V14.00,2013-07-11 08:26:00,
2013-07-11 03:30:00,74.1,70.7,29.88,North,0,0.0,0.0,89,0.00,,---,0.00,VWS V14.00,2013-07-11 08:30:00,
2013-07-11 03:35:00,74.0,70.6,29.88,North,0,0.0,0.0,89,0.00,,---,0.00,VWS V14.00,2013-07-11 08:35:00,
2013-07-11 03:40:00,74.0,70.6,29.88,North,0,0.0,0.0,89,0.00,,---,0.00,VWS V14.00,2013-07-11 08:40:00,
2013-07-11 03:45:00,74.0,70.6,29.88,North,0,0.0,0.0,89,0.00,,---,0.00,VWS V14.00,2013-07-11 08:45:00,
2013-07-11 03:50:00,74.0,70.6,29.88,North,0,0.0,0.0,89,0.00,,---,0.00,VWS V14.00,2013-07-11 08:50:00,
2013-07-11 03:55:00,73.9,70.5,29.88,North,0,0.0,0.0,89,0.00,,---,0.00,VWS V14.00,2013-07-11 08:55:00,
2013-07-11 04:00:00,73.8,70.4,29.88,North,0,0.0,0.0,89,0.00,,---,0.00,VWS V14.00,2013-07-11 09:00:00,
2013-07-11 04:05:00,73.8,70.4,29.89,North,0,0.0,0.0,89,0.00,,---,0.00,VWS V14.00,2013-07-11 09:05:00,
2013-07-11 04:10:00,73.8,70.4,29.89,North,0,0.0,0.0,89,0.00,,---,0.00,VWS V14.00,2013-07-11 09:10:00,
2013-07-11 04:15:00,73.8,70.4,29.89,North,0,0.0,0.0,89,0.00,,---,0.00,VWS V14.00,2013-07-11 09:15:00,
2013-07-11 04:20:00,73.7,70.3,29.88,North,0,0.0,0.0,89,0.00,,---,0.00,VWS V14.00,2013-07-11 09:20:00,
2013-07-11 04:25:00,73.7,70.3,29.88,North,0,0.0,0.0,89,0.00,,---,0.00,VWS V14.00,2013-07-11 09:25:00,
2013-07-11 04:30:00,73.7,70.3,29.88,North,0,0.0,0.0,89,0.00,,---,0.00,VWS V14.00,2013-07-11 09:30:00,
2013-07-11 04:35:00,73.6,70.2,29.88,North,0,0.0,0.0,89,0.00,,---,0.00,VWS V14.00,2013-07-11 09:35:00,
2013-07-11 04:40:00,73.5,70.4,29.88,North,0,0.0,0.0,90,0.00,,---,0.00,VWS V14.00,2013-07-11 09:40:00,
2013-07-11 04:45:00,73.5,70.4,29.88,North,0,0.0,0.0,90,0.00,,---,0.00,VWS V14.00,2013-07-11 09:45:00,
2013-07-11 04:50:00,73.4,70.3,29.88,North,0,0.0,0.0,90,0.00,,---,0.00,VWS V14.00,2013-07-11 09:50:00,
2013-07-11 04:55:00,73.3,70.2,29.88,North,0,0.0,0.0,90,0.00,,---,0.00,VWS V14.00,2013-07-11 09:55:00,
2013-07-11 05:00:00,73.3,70.2,29.88,North,0,0.0,0.0,90,0.00,,---,0.00,VWS V14.00,2013-07-11 10:00:00,
2013-07-11 05:05:00,73.3,70.2,29.88,North,0,0.0,0.0,90,0.00,,---,0.00,VWS V14.00,2013-07-11 10:05:00,
2013-07-11 05:10:00,73.3,70.2,29.88,North,0,0.0,0.0,90,0.00,,---,0.00,VWS V14.00,2013-07-11 10:10:00,
2013-07-11 05:15:00,73.4,70.3,29.88,North,0,0.0,0.0,90,0.00,,---,0.00,VWS V14.00,2013-07-11 10:15:00,
2013-07-11 05:20:00,73.4,70.3,29.88,North,0,0.0,0.0,90,0.00,,---,0.00,VWS V14.00,2013-07-11 10:20:00,
2013-07-11 05:25:00,73.4,70.3,29.88,North,0,0.0,0.0,90,0.00,,---,0.00,VWS V14.00,2013-07-11 10:25:00,
2013-07-11 05:30:00,73.3,70.2,29.88,North,0,0.0,0.0,90,0.00,,---,0.00,VWS V14.00,2013-07-11 10:30:00,
2013-07-11 05:35:00,73.3,70.2,29.88,North,0,0.0,0.0,90,0.00,,---,0.00,VWS V14.00,2013-07-11 10:35:00,
2013-07-11 05:40:00,73.3,70.2,29.88,North,0,0.0,0.0,90,0.00,,---,0.00,VWS V14.00,2013-07-11 10:40:00,
2013-07-11 05:45:00,73.2,70.1,29.89,North,0,0.0,0.0,90,0.00,,---,0.00,VWS V14.00,2013-07-11 10:45:00,
2013-07-11 05:50:00,73.2,70.1,29.89,North,0,0.0,0.0,90,0.00,,---,0.00,VWS V14.00,2013-07-11 10:50:00,
2013-07-11 05:55:00,73.1,70.0,29.88,North,0,0.0,0.0,90,0.00,,---,0.00,VWS V14.00,2013-07-11 10:55:00,
2013-07-11 06:00:00,73.1,70.0,29.89,North,0,0.0,0.0,90,0.00,,---,0.00,VWS V14.00,2013-07-11 11:00:00,
2013-07-11 06:05:00,73.0,69.9,29.89,North,0,0.0,0.0,90,0.00,,---,0.00,VWS V14.00,2013-07-11 11:05:00,
2013-07-11 06:10:00,72.7,69.6,29.89,North,0,0.0,0.0,90,0.00,,---,0.00,VWS V14.00,2013-07-11 11:10:00,
2013-07-11 06:15:00,72.7,69.9,29.89,North,0,0.0,0.0,91,0.00,,---,0.00,VWS V14.00,2013-07-11 11:15:00,
2013-07-11 06:20:00,72.7,69.9,29.89,North,0,0.0,0.0,91,0.00,,---,0.00,VWS V14.00,2013-07-11 11:20:00,
2013-07-11 06:25:00,72.7,69.9,29.89,North,0,0.0,0.0,91,0.00,,---,0.00,VWS V14.00,2013-07-11 11:25:00,
2013-07-11 06:30:00,72.7,69.9,29.89,North,0,0.0,0.0,91,0.00,,---,0.00,VWS V14.00,2013-07-11 11:30:00,
2013-07-11 06:35:00,72.8,70.0,29.89,North,0,0.0,0.0,91,0.00,,---,0.00,VWS V14.00,2013-07-11 11:35:00,
2013-07-11 06:40:00,72.8,70.0,29.89,North,0,0.0,0.0,91,0.00,,---,0.00,VWS V14.00,2013-07-11 11:40:00,
2013-07-11 06:45:00,72.9,70.1,29.89,North,0,0.0,0.0,91,0.00,,---,0.00,VWS V14.00,2013-07-11 11:45:00,
2013-07-11 06:50:00,72.9,70.1,29.89,North,0,0.0,0.0,91,0.00,,---,0.00,VWS V14.00,2013-07-11 11:50:00,
2013-07-11 06:55:00,73.0,70.2,29.89,North,0,0.0,0.0,91,0.00,,---,0.00,VWS V14.00,2013-07-11 11:55:00,
2013-07-11 07:00:00,73.2,70.4,29.89,North,0,0.0,0.0,91,0.00,,---,0.00,VWS V14.00,2013-07-11 12:00:00,
2013-07-11 07:05:00,73.4,70.6,29.90,SW,225,1.0,4.0,91,0.00,,---,0.00,VWS V14.00,2013-07-11 12:05:00,
2013-07-11 07:10:00,73.5,70.7,29.90,SW,225,3.0,4.0,91,0.00,,---,0.00,VWS V14.00,2013-07-11 12:10:00,
2013-07-11 07:15:00,73.8,71.0,29.90,SW,225,3.0,5.0,91,0.00,,---,0.00,VWS V14.00,2013-07-11 12:15:00,
2013-07-11 07:20:00,74.1,71.3,29.90,SW,225,4.0,5.0,91,0.00,,---,0.00,VWS V14.00,2013-07-11 12:20:00,
2013-07-11 07:25:00,74.4,71.6,29.90,SW,225,3.0,4.0,91,0.00,,---,0.00,VWS V14.00,2013-07-11 12:25:00,
2013-07-11 07:30:00,74.7,71.9,29.90,SW,225,2.0,4.0,91,0.00,,---,0.00,VWS V14.00,2013-07-11 12:30:00,
2013-07-11 07:35:00,75.1,72.0,29.90,SW,225,0.0,0.0,90,0.00,,---,0.00,VWS V14.00,2013-07-11 12:35:00,
2013-07-11 07:40:00,75.6,72.1,29.90,SW,225,1.0,4.0,89,0.00,,---,0.00,VWS V14.00,2013-07-11 12:40:00,
2013-07-11 07:43:00,75.6,72.1,29.90,SW,225,1.0,4.0,89,0.00,,---,0.00,VWS V14.00,2013-07-11 12:43:00,
2013-07-11 07:45:00,76.4,72.6,29.90,SW,231,0.0,4.0,88,0.00,,---,0.00,VWS V14.00,2013-07-11 12:45:00,
2013-07-11 07:48:00,76.6,72.8,29.90,SW,231,1.0,3.0,88,0.00,,---,0.00,VWS V14.00,2013-07-11 12:48:00,
2013-07-11 07:50:00,77.0,72.5,29.90,SW,231,0.0,4.0,86,0.00,,---,0.00,VWS V14.00,2013-07-11 12:50:00,
2013-07-11 07:53:00,77.2,72.7,29.90,SW,231,1.0,2.0,86,0.00,,---,0.00,VWS V14.00,2013-07-11 12:53:00,
2013-07-11 07:55:00,77.6,72.7,29.90,SW,231,3.0,4.0,85,0.00,,---,0.00,VWS V14.00,2013-07-11 12:55:00,
2013-07-11 07:58:00,77.8,72.6,29.91,SW,231,2.0,3.0,84,0.00,,---,0.00,VWS V14.00,2013-07-11 12:58:00,
2013-07-11 08:03:00,78.4,72.8,29.90,SW,231,1.0,3.0,83,0.00,,---,0.00,VWS V14.00,2013-07-11 13:03:00,
2013-07-11 08:08:00,78.9,72.6,29.90,SW,231,3.0,4.0,81,0.00,,---,0.00,VWS V14.00,2013-07-11 13:08:00,
2013-07-11 08:13:00,79.3,73.0,29.91,SW,231,0.0,4.0,81,0.00,,---,0.00,VWS V14.00,2013-07-11 13:13:00,
2013-07-11 08:15:00,79.5,72.8,29.91,SW,231,1.0,4.0,80,0.00,,---,0.00,VWS V14.00,2013-07-11 13:15:00,
2013-07-11 08:18:00,79.5,72.8,29.91,SW,231,0.0,1.0,80,0.00,,---,0.00,VWS V14.00,2013-07-11 13:18:00,
2013-07-11 08:23:00,79.7,72.6,29.91,SW,231,0.0,0.0,79,0.00,,---,0.00,VWS V14.00,2013-07-11 13:23:00,
2013-07-11 08:25:00,79.9,72.4,29.91,SW,231,0.0,3.0,78,0.00,,---,0.00,VWS V14.00,2013-07-11 13:25:00,
2013-07-11 08:28:00,80.0,72.5,29.91,SW,231,0.0,3.0,78,0.00,,---,0.00,VWS V14.00,2013-07-11 13:28:00,
2013-07-11 08:33:00,80.2,72.7,29.90,SW,231,3.0,5.0,78,0.00,,---,0.00,VWS V14.00,2013-07-11 13:33:00,
2013-07-11 08:35:00,80.3,72.8,29.90,SW,231,0.0,5.0,78,0.00,,---,0.00,VWS V14.00,2013-07-11 13:35:00,
2013-07-11 08:39:00,80.3,72.8,29.90,SW,231,0.0,0.0,78,0.00,,---,0.00,VWS V14.00,2013-07-11 13:39:00,
2013-07-11 08:40:00,80.4,72.9,29.90,SW,231,0.0,0.0,78,0.00,,---,0.00,VWS V14.00,2013-07-11 13:40:00,
2013-07-11 08:44:00,80.5,73.0,29.90,SW,231,0.0,0.0,78,0.00,,---,0.00,VWS V14.00,2013-07-11 13:44:00,
2013-07-11 08:45:00,80.5,73.0,29.90,SW,231,0.0,0.0,78,0.00,,---,0.00,VWS V14.00,2013-07-11 13:45:00,
2013-07-11 08:49:00,80.6,73.1,29.90,SW,231,0.0,0.0,78,0.00,,---,0.00,VWS V14.00,2013-07-11 13:49:00,
2013-07-11 08:50:00,80.7,73.2,29.90,SW,231,0.0,0.0,78,0.00,,---,0.00,VWS V14.00,2013-07-11 13:50:00,
2013-07-11 08:54:00,80.7,72.8,29.90,SW,231,0.0,0.0,77,0.00,,---,0.00,VWS V14.00,2013-07-11 13:54:00,
2013-07-11 08:55:00,80.8,72.9,29.90,SW,231,0.0,0.0,77,0.00,,---,0.00,VWS V14.00,2013-07-11 13:55:00,
2013-07-11 08:59:00,80.9,73.0,29.90,SW,231,0.0,0.0,77,0.00,,---,0.00,VWS V14.00,2013-07-11 13:59:00,
2013-07-11 09:00:00,81.0,73.1,29.90,SW,231,0.0,0.0,77,0.00,,---,0.00,VWS V14.00,2013-07-11 14:00:00,
2013-07-11 09:05:00,81.2,72.9,29.90,SW,231,0.0,1.0,76,0.00,,---,0.00,VWS V14.00,2013-07-11 14:05:00,
2013-07-11 09:10:00,81.4,72.7,29.90,SW,231,0.0,4.0,75,0.00,,---,0.00,VWS V14.00,2013-07-11 14:10:00,
2013-07-11 09:15:00,81.7,72.6,29.90,SW,231,2.0,6.0,74,0.00,,---,0.00,VWS V14.00,2013-07-11 14:15:00,
2013-07-11 09:20:00,82.0,72.9,29.90,SW,231,2.0,4.0,74,0.00,,---,0.00,VWS V14.00,2013-07-11 14:20:00,
2013-07-11 09:25:00,82.3,72.8,29.90,SW,231,0.0,4.0,73,0.00,,---,0.00,VWS V14.00,2013-07-11 14:25:00,
2013-07-11 09:26:00,82.3,72.8,29.89,SW,231,0.0,2.0,73,0.00,,---,0.00,VWS V14.00,2013-07-11 14:26:00,
2013-07-11 09:30:00,82.7,73.2,29.90,SW,231,0.0,5.0,73,0.00,,---,0.00,VWS V14.00,2013-07-11 14:30:00,
2013-07-11 09:31:00,82.6,73.1,29.90,SW,231,0.0,5.0,73,0.00,,---,0.00,VWS V14.00,2013-07-11 14:31:00,
2013-07-11 09:35:00,83.2,73.7,29.90,SW,231,4.0,4.0,73,0.00,,---,0.00,VWS V14.00,2013-07-11 14:35:00,
2013-07-11 09:36:00,83.1,73.6,29.90,SW,231,2.0,4.0,73,0.00,,---,0.00,VWS V14.00,2013-07-11 14:36:00,
2013-07-11 09:40:00,83.8,73.4,29.89,SW,231,2.0,5.0,71,0.00,,---,0.00,VWS V14.00,2013-07-11 14:40:00,
2013-07-11 09:42:00,83.8,73.4,29.89,SW,231,5.0,5.0,71,0.00,,---,0.00,VWS V14.00,2013-07-11 14:42:00,
2013-07-11 09:47:00,84.4,74.0,29.89,SW,231,6.0,7.0,71,0.00,,---,0.00,VWS V14.00,2013-07-11 14:47:00,
2013-07-11 09:50:00,85.2,73.9,29.89,SW,227,3.0,6.0,69,0.00,,---,0.00,VWS V14.00,2013-07-11 14:50:00,
2013-07-11 09:52:00,85.1,73.8,29.89,SW,227,3.0,6.0,69,0.00,,---,0.00,VWS V14.00,2013-07-11 14:52:00,
2013-07-11 09:55:00,85.8,74.0,29.89,SW,227,6.0,6.0,68,0.00,,---,0.00,VWS V14.00,2013-07-11 14:55:00,
2013-07-11 09:57:00,85.7,73.9,29.89,SW,227,5.0,5.0,68,0.00,,---,0.00,VWS V14.00,2013-07-11 14:57:00,
2013-07-11 10:02:00,86.4,74.6,29.89,SW,223,3.0,6.0,68,0.00,,---,0.00,VWS V14.00,2013-07-11 15:02:00,
2013-07-11 10:05:00,87.0,74.3,29.89,SSW,197,0.0,8.0,66,0.00,,---,0.00,VWS V14.00,2013-07-11 15:05:00,
2013-07-11 10:07:00,87.0,74.3,29.89,SSW,197,0.0,8.0,66,0.00,,---,0.00,VWS V14.00,2013-07-11 15:07:00,
2013-07-11 10:10:00,87.1,73.9,29.89,SSW,199,2.0,7.0,65,0.00,,---,0.00,VWS V14.00,2013-07-11 15:10:00,
2013-07-11 10:12:00,87.1,73.9,29.89,SSW,199,2.0,7.0,65,0.00,,---,0.00,VWS V14.00,2013-07-11 15:12:00,
2013-07-11 10:15:00,87.4,74.2,29.89,SSW,196,1.0,7.0,65,0.00,,---,0.00,VWS V14.00,2013-07-11 15:15:00,
2013-07-11 10:17:00,87.4,74.2,29.89,SSW,196,1.0,1.0,65,0.00,,---,0.00,VWS V14.00,2013-07-11 15:17:00,
2013-07-11 10:20:00,87.7,73.6,29.89,SSW,205,6.0,9.0,63,0.00,,---,0.00,VWS V14.00,2013-07-11 15:20:00,
2013-07-11 10:22:00,87.7,73.6,29.89,SSW,205,6.0,9.0,63,0.00,,---,0.00,VWS V14.00,2013-07-11 15:22:00,
2013-07-11 10:25:00,88.2,73.5,29.89,SSW,206,3.0,7.0,62,0.00,,---,0.00,VWS V14.00,2013-07-11 15:25:00,
2013-07-11 10:27:00,88.2,73.6,29.89,SSW,206,3.0,3.0,62,0.00,,---,0.00,VWS V14.00,2013-07-11 15:27:00,
2013-07-11 10:30:00,88.6,73.9,29.89,SSW,209,5.0,9.0,62,0.00,,---,0.00,VWS V14.00,2013-07-11 15:30:00,
2013-07-11 10:32:00,88.6,73.9,29.89,SSW,209,5.0,5.0,62,0.00,,---,0.00,VWS V14.00,2013-07-11 15:32:00,
2013-07-11 10:35:00,88.8,74.1,29.89,SW,227,3.0,9.0,62,0.00,,---,0.00,VWS V14.00,2013-07-11 15:35:00,
2013-07-11 10:37:00,88.8,74.1,29.89,SW,227,3.0,9.0,62,0.00,,---,0.00,VWS V14.00,2013-07-11 15:37:00,
2013-07-11 10:40:00,88.9,73.2,29.89,SW,227,5.0,9.0,60,0.00,,---,0.00,VWS V14.00,2013-07-11 15:40:00,
2013-07-11 10:42:00,88.9,73.2,29.89,SW,227,5.0,5.0,60,0.00,,---,0.00,VWS V14.00,2013-07-11 15:42:00,
2013-07-11 10:45:00,88.9,73.2,29.89,SW,228,4.0,6.0,60,0.00,,---,0.00,VWS V14.00,2013-07-11 15:45:00,
2013-07-11 10:47:00,88.9,73.2,29.89,SW,228,3.0,4.0,60,0.00,,---,0.00,VWS V14.00,2013-07-11 15:47:00,
2013-07-11 10:50:00,89.3,73.6,29.89,SW,229,3.0,6.0,60,0.00,,---,0.00,VWS V14.00,2013-07-11 15:50:00,
2013-07-11 10:52:00,89.3,73.6,29.89,SW,229,3.0,6.0,60,0.00,,---,0.00,VWS V14.00,2013-07-11 15:52:00,
2013-07-11 10:55:00,89.7,74.0,29.89,SW,229,3.0,5.0,60,0.00,,---,0.00,VWS V14.00,2013-07-11 15:55:00,
2013-07-11 10:57:00,89.7,74.0,29.89,SW,229,3.0,3.0,60,0.00,,---,0.00,VWS V14.00,2013-07-11 15:57:00,
2013-07-11 11:00:00,90.2,73.9,29.89,SW,229,1.0,6.0,59,0.00,,---,0.00,VWS V14.00,2013-07-11 16:00:00,
2013-07-11 11:02:00,90.2,73.9,29.89,SW,229,1.0,6.0,59,0.00,,---,0.00,VWS V14.00,2013-07-11 16:02:00,
2013-07-11 11:05:00,90.6,73.8,29.89,SW,229,4.0,6.0,58,0.00,,---,0.00,VWS V14.00,2013-07-11 16:05:00,
2013-07-11 11:07:00,90.6,73.3,29.89,SW,229,2.0,4.0,57,0.00,,---,0.00,VWS V14.00,2013-07-11 16:07:00,
2013-07-11 11:10:00,91.0,74.2,29.89,SW,229,0.0,5.0,58,0.00,,---,0.00,VWS V14.00,2013-07-11 16:10:00,
2013-07-11 11:12:00,91.1,74.3,29.89,SW,229,2.0,2.0,58,0.00,,---,0.00,VWS V14.00,2013-07-11 16:12:00,
2013-07-11 11:15:00,91.8,74.9,29.89,SW,229,0.0,2.0,58,0.00,,---,0.00,VWS V14.00,2013-07-11 16:15:00,
2013-07-11 11:17:00,91.8,74.9,29.89,SW,229,0.0,0.0,58,0.00,,---,0.00,VWS V14.00,2013-07-11 16:17:00,
2013-07-11 11:20:00,92.5,74.5,29.89,SW,229,2.0,3.0,56,0.00,,---,0.00,VWS V14.00,2013-07-11 16:20:00,
2013-07-11 11:22:00,92.5,74.5,29.89,SW,229,2.0,3.0,56,0.00,,---,0.00,VWS V14.00,2013-07-11 16:22:00,
2013-07-11 11:25:00,93.1,75.1,29.89,SW,229,1.0,5.0,56,0.00,,---,0.00,VWS V14.00,2013-07-11 16:25:00,
2013-07-11 11:27:00,93.2,75.2,29.89,SW,229,3.0,3.0,56,0.00,,---,0.00,VWS V14.00,2013-07-11 16:27:00,
2013-07-11 11:30:00,94.0,75.4,29.89,SW,229,2.0,4.0,55,0.00,,---,0.00,VWS V14.00,2013-07-11 16:30:00,
2013-07-11 11:33:00,94.1,74.9,29.89,SW,229,0.0,2.0,54,0.00,,---,0.00,VWS V14.00,2013-07-11 16:33:00,
2013-07-11 11:35:00,94.4,74.1,29.89,SSW,201,2.0,5.0,52,0.00,,---,0.00,VWS V14.00,2013-07-11 16:35:00,
2013-07-11 11:38:00,94.3,74.6,29.89,SE,144,6.0,6.0,53,0.00,,---,0.00,VWS V14.00,2013-07-11 16:38:00,
2013-07-11 11:40:00,94.1,74.4,29.89,SE,133,4.0,7.0,53,0.00,,---,0.00,VWS V14.00,2013-07-11 16:40:00,
2013-07-11 11:43:00,94.1,73.2,29.89,SE,127,1.0,6.0,51,0.00,,---,0.00,VWS V14.00,2013-07-11 16:43:00,
2013-07-11 11:45:00,93.8,72.9,29.89,ESE,109,5.0,6.0,51,0.00,,---,0.00,VWS V14.00,2013-07-11 16:45:00,
2013-07-11 11:48:00,93.8,72.9,29.89,ESE,107,5.0,6.0,51,0.00,,---,0.00,VWS V14.00,2013-07-11 16:48:00,
2013-07-11 11:50:00,93.7,73.4,29.89,East,96,7.0,7.0,52,0.00,,---,0.00,VWS V14.00,2013-07-11 16:50:00,
2013-07-11 11:53:00,93.7,73.4,29.89,East,95,5.0,7.0,52,0.00,,---,0.00,VWS V14.00,2013-07-11 16:53:00,
2013-07-11 11:55:00,93.7,73.4,29.89,East,80,6.0,9.0,52,0.00,,---,0.00,VWS V14.00,2013-07-11 16:55:00,
2013-07-11 11:58:00,93.8,73.5,29.89,ENE,73,5.0,7.0,52,0.00,,---,0.00,VWS V14.00,2013-07-11 16:58:00,
2013-07-11 12:00:00,93.5,72.7,29.89,ENE,60,3.0,10.0,51,0.00,,---,0.00,VWS V14.00,2013-07-11 17:00:00,
2013-07-11 12:03:00,93.4,73.2,29.89,ENE,60,6.0,6.0,52,0.00,,---,0.00,VWS V14.00,2013-07-11 17:03:00,
2013-07-11 12:05:00,93.4,74.3,29.89,ENE,57,5.0,10.0,54,0.00,,---,0.00,VWS V14.00,2013-07-11 17:05:00,
2013-07-11 12:08:00,93.5,74.4,29.89,ENE,57,5.0,5.0,54,0.00,,---,0.00,VWS V14.00,2013-07-11 17:08:00,
2013-07-11 12:10:00,93.5,73.8,29.89,NNE,30,4.0,10.0,53,0.00,,---,0.00,VWS V14.00,2013-07-11 17:10:00,
2013-07-11 12:14:00,93.6,73.9,29.89,NNE,30,3.0,4.0,53,0.00,,---,0.00,VWS V14.00,2013-07-11 17:14:00,
2013-07-11 12:15:00,93.8,74.1,29.89,NNE,27,8.0,8.0,53,0.00,,---,0.00,VWS V14.00,2013-07-11 17:15:00,
2013-07-11 12:19:00,93.9,73.0,29.89,NNE,26,4.0,8.0,51,0.00,,---,0.00,VWS V14.00,2013-07-11 17:19:00,
2013-07-11 12:20:00,94.0,73.7,29.89,NNE,30,4.0,11.0,52,0.00,,---,0.00,VWS V14.00,2013-07-11 17:20:00,
2013-07-11 12:24:00,94.1,73.8,29.89,NNE,24,4.0,9.0,52,0.00,,---,0.00,VWS V14.00,2013-07-11 17:24:00,
2013-07-11 12:25:00,94.2,73.9,29.89,NNE,22,7.0,10.0,52,0.00,,---,0.00,VWS V14.00,2013-07-11 17:25:00,
2013-07-11 12:29:00,94.3,74.0,29.89,NNE,22,7.0,11.0,52,0.00,,---,0.00,VWS V14.00,2013-07-11 17:29:00,
2013-07-11 12:30:00,94.2,73.3,29.89,NE,44,6.0,11.0,51,0.00,,---,0.00,VWS V14.00,2013-07-11 17:30:00,
2013-07-11 12:34:00,94.2,73.3,29.89,NE,41,1.0,11.0,51,0.00,,---,0.00,VWS V14.00,2013-07-11 17:34:00,
2013-07-11 12:39:00,94.0,74.3,29.89,NE,41,4.0,7.0,53,0.00,,---,0.00,VWS V14.00,2013-07-11 17:39:00,
2013-07-11 12:40:00,94.0,74.3,29.89,NE,40,5.0,7.0,53,0.00,,---,0.00,VWS V14.00,2013-07-11 17:40:00,
2013-07-11 12:44:00,94.0,73.7,29.89,NNE,26,7.0,12.0,52,0.00,,---,0.00,VWS V14.00,2013-07-11 17:44:00,
2013-07-11 12:45:00,94.0,73.1,29.89,North,5,7.0,12.0,51,0.00,,---,0.00,VWS V14.00,2013-07-11 17:45:00,
2013-07-11 12:49:00,94.0,73.7,29.89,North,5,7.0,11.0,52,0.00,,---,0.00,VWS V14.00,2013-07-11 17:49:00,
2013-07-11 12:50:00,94.2,73.9,29.89,North,360,6.0,12.0,52,0.00,,---,0.00,VWS V14.00,2013-07-11 17:50:00,
2013-07-11 12:54:00,94.3,74.6,29.89,North,5,3.0,6.0,53,0.00,,---,0.00,VWS V14.00,2013-07-11 17:54:00,
2013-07-11 12:55:00,94.5,74.7,29.89,NNE,12,6.0,12.0,53,0.00,,---,0.00,VWS V14.00,2013-07-11 17:55:00,
2013-07-11 12:59:00,94.7,73.8,29.89,North,9,5.0,11.0,51,0.00,,---,0.00,VWS V14.00,2013-07-11 17:59:00,
2013-07-11 13:00:00,94.9,74.0,29.89,North,9,3.0,11.0,51,0.00,,---,0.00,VWS V14.00,2013-07-11 18:00:00,
2013-07-11 13:04:00,95.1,73.6,29.89,NNE,20,3.0,7.0,50,0.00,,---,0.00,VWS V14.00,2013-07-11 18:04:00,
2013-07-11 13:05:00,95.4,74.4,29.89,NNE,29,6.0,10.0,51,0.00,,---,0.00,VWS V14.00,2013-07-11 18:05:00,
2013-07-11 13:10:00,95.5,73.9,29.88,NE,42,8.0,12.0,50,0.00,,---,0.00,VWS V14.00,2013-07-11 18:10:00,
2013-07-11 13:15:00,95.5,73.9,29.88,NE,34,5.0,12.0,50,0.00,,---,0.00,VWS V14.00,2013-07-11 18:15:00,
2013-07-11 13:20:00,95.5,74.5,29.88,NE,47,10.0,13.0,51,0.00,,---,0.00,VWS V14.00,2013-07-11 18:20:00,
2013-07-11 13:25:00,95.4,73.8,29.88,NE,45,6.0,13.0,50,0.00,,---,0.00,VWS V14.00,2013-07-11 18:25:00,
2013-07-11 13:30:00,95.3,74.3,29.88,NE,45,6.0,12.0,51,0.00,,---,0.00,VWS V14.00,2013-07-11 18:30:00,
2013-07-11 13:35:00,95.6,75.2,29.88,NE,45,7.0,12.0,52,0.00,,---,0.00,VWS V14.00,2013-07-11 18:35:00,
2013-07-11 13:40:00,95.8,74.2,29.87,ENE,68,6.0,11.0,50,0.00,,---,0.00,VWS V14.00,2013-07-11 18:40:00,
2013-07-11 13:45:00,95.9,74.9,29.87,NE,45,7.0,12.0,51,0.00,,---,0.00,VWS V14.00,2013-07-11 18:45:00,
2013-07-11 13:55:00,96.2,74.6,29.87,ENE,68,6.0,11.0,50,0.00,,---,0.00,VWS V14.00,2013-07-11 18:55:00,
2013-07-11 14:05:00,96.8,73.9,29.87,ENE,68,7.0,13.0,48,0.00,,---,0.00,VWS V14.00,2013-07-11 19:05:00,
2013-07-11 14:10:00,96.9,74.6,29.87,NE,45,8.0,13.0,49,0.00,,---,0.00,VWS V14.00,2013-07-11 19:10:00,
2013-07-11 14:15:00,96.9,73.3,29.87,East,90,6.0,14.0,47,0.00,,---,0.00,VWS V14.00,2013-07-11 19:15:00,
2013-07-11 14:20:00,97.3,73.1,29.87,ESE,112,6.0,11.0,46,0.00,,---,0.00,VWS V14.00,2013-07-11 19:20:00,
2013-07-11 14:30:00,97.5,74.5,29.87,ENE,68,6.0,12.0,48,0.00,,---,0.00,VWS V14.00,2013-07-11 19:30:00,
2013-07-11 14:35:00,97.9,74.3,29.87,ENE,68,6.0,13.0,47,0.00,,---,0.00,VWS V14.00,2013-07-11 19:35:00,
2013-07-11 14:40:00,97.7,75.3,29.86,NE,45,7.0,13.0,49,0.00,,---,0.00,VWS V14.00,2013-07-11 19:40:00,
2013-07-11 14:45:00,97.3,73.7,29.86,NE,45,7.0,11.0,47,0.00,,---,0.00,VWS V14.00,2013-07-11 19:45:00,
2013-07-11 14:50:00,97.3,75.6,29.86,ENE,68,7.0,14.0,50,0.00,,---,0.00,VWS V14.00,2013-07-11 19:50:00,
2013-07-11 14:55:00,97.2,74.9,29.86,NE,45,7.0,11.0,49,0.00,,---,0.00,VWS V14.00,2013-07-11 19:55:00,
2013-07-11 15:05:00,97.1,74.2,29.86,NNE,22,6.0,12.0,48,0.00,,---,0.00,VWS V14.00,2013-07-11 20:05:00,
2013-07-11 15:15:00,97.3,73.1,29.85,NE,45,6.0,11.0,46,0.00,,---,0.00,VWS V14.00,2013-07-11 20:15:00,
2013-07-11 15:20:00,97.5,73.9,29.85,NE,45,6.0,11.0,47,0.00,,---,0.00,VWS V14.00,2013-07-11 20:20:00,
2013-07-11 15:30:00,97.5,73.9,29.85,ENE,68,8.0,12.0,47,0.00,,---,0.00,VWS V14.00,2013-07-11 20:30:00,
2013-07-11 15:40:00,97.7,72.8,29.84,ENE,68,7.0,12.0,45,0.00,,---,0.00,VWS V14.00,2013-07-11 20:40:00,
2013-07-11 15:45:00,97.9,73.0,29.84,ENE,68,5.0,11.0,45,0.00,,---,0.00,VWS V14.00,2013-07-11 20:45:00,
2013-07-11 15:50:00,98.2,73.2,29.84,NNE,22,6.0,13.0,45,0.00,,---,0.00,VWS V14.00,2013-07-11 20:50:00,
2013-07-11 15:55:00,98.3,73.3,29.84,NE,45,9.0,14.0,45,0.00,,---,0.00,VWS V14.00,2013-07-11 20:55:00,
2013-07-11 16:00:00,97.8,73.5,29.83,NE,45,5.0,10.0,46,0.00,,---,0.00,VWS V14.00,2013-07-11 21:00:00,
2013-07-11 16:05:00,97.3,73.1,29.83,ENE,68,6.0,12.0,46,0.00,,---,0.00,VWS V14.00,2013-07-11 21:05:00,
2013-07-11 16:10:00,96.9,73.3,29.83,ENE,68,4.0,10.0,47,0.00,,---,0.00,VWS V14.00,2013-07-11 21:10:00,
2013-07-11 16:15:00,96.6,72.4,29.83,ENE,68,4.0,7.0,46,0.00,,---,0.00,VWS V14.00,2013-07-11 21:15:00,
2013-07-11 16:20:00,96.4,74.1,29.83,ENE,68,5.0,9.0,49,0.00,,---,0.00,VWS V14.00,2013-07-11 21:20:00,
2013-07-11 16:30:00,96.5,74.2,29.82,NNE,22,6.0,11.0,49,0.00,,---,0.00,VWS V14.00,2013-07-11 21:30:00,
2013-07-11 16:35:00,96.5,76.0,29.83,North,0,11.0,17.0,52,0.00,,---,0.00,VWS V14.00,2013-07-11 21:35:00,
2013-07-11 16:45:00,91.8,70.5,29.82,North,0,10.0,17.0,50,0.00,,---,0.00,VWS V14.00,2013-07-11 21:45:00,
2013-07-11 16:50:00,90.7,67.7,29.81,NNE,22,9.0,14.0,47,0.00,,---,0.00,VWS V14.00,2013-07-11 21:50:00,
2013-07-11 16:55:00,91.0,66.1,29.82,NNE,22,5.0,9.0,44,0.00,,---,0.00,VWS V14.00,2013-07-11 21:55:00,
2013-07-11 17:00:00,91.3,68.9,29.82,East,90,7.0,13.0,48,0.00,,---,0.00,VWS V14.00,2013-07-11 22:00:00,
2013-07-11 17:05:00,91.4,69.6,29.84,ESE,112,8.0,17.0,49,0.00,,---,0.00,VWS V14.00,2013-07-11 22:05:00,
2013-07-11 17:10:00,90.8,70.8,29.83,SSE,158,9.0,18.0,52,0.00,,---,0.00,VWS V14.00,2013-07-11 22:10:00,
2013-07-11 17:15:00,89.6,68.5,29.82,SE,135,10.0,16.0,50,0.00,,---,0.00,VWS V14.00,2013-07-11 22:15:00,
2013-07-11 17:20:00,88.5,66.9,29.82,SSE,158,10.0,20.0,49,0.00,,---,0.00,VWS V14.00,2013-07-11 22:20:00,
2013-07-11 17:30:00,87.1,66.2,29.81,SSE,158,3.0,5.0,50,0.00,,---,0.00,VWS V14.00,2013-07-11 22:30:00,
2013-07-11 17:40:00,87.0,70.4,29.81,SSE,158,4.0,10.0,58,0.00,,---,0.00,VWS V14.00,2013-07-11 22:40:00,
2013-07-11 17:45:00,87.2,71.1,29.81,SSE,158,3.0,5.0,59,0.00,,---,0.00,VWS V14.00,2013-07-11 22:45:00,
2013-07-11 17:50:00,87.4,71.8,29.82,SSE,158,2.0,10.0,60,0.00,,---,0.00,VWS V14.00,2013-07-11 22:50:00,
2013-07-11 17:55:00,87.3,70.2,29.84,NNW,338,5.0,11.0,57,0.00,,---,0.00,VWS V14.00,2013-07-11 22:55:00,
2013-07-11 18:00:00,87.2,70.6,29.83,NNW,338,0.0,2.0,58,0.00,,---,0.00,VWS V14.00,2013-07-11 23:00:00,
2013-07-11 18:05:00,87.3,71.7,29.82,NNW,338,1.0,4.0,60,0.00,,---,0.00,VWS V14.00,2013-07-11 23:05:00,
2013-07-11 18:19:00,87.4,72.3,29.82,NNW,338,4.0,6.0,61,0.00,,---,0.00,VWS V14.00,2013-07-11 23:19:00,
2013-07-11 18:24:00,86.9,72.3,29.82,NNW,339,2.0,4.0,62,0.00,,---,0.00,VWS V14.00,2013-07-11 23:24:00,
2013-07-11 18:29:00,86.7,72.6,29.82,NNW,339,0.0,0.0,63,0.00,,---,0.00,VWS V14.00,2013-07-11 23:29:00,
2013-07-11 18:34:00,86.7,73.1,29.81,NNW,339,0.0,0.0,64,0.00,,---,0.00,VWS V14.00,2013-07-11 23:34:00,
2013-07-11 18:39:00,86.7,72.6,29.82,NNW,339,3.0,4.0,63,0.00,,---,0.00,VWS V14.00,2013-07-11 23:39:00,
2013-07-11 18:44:00,86.8,73.6,29.82,NNW,339,0.0,5.0,65,0.00,,---,0.00,VWS V14.00,2013-07-11 23:44:00,
2013-07-11 18:49:00,86.9,74.2,29.82,NNW,339,0.0,0.0,66,0.00,,---,0.00,VWS V14.00,2013-07-11 23:49:00,
2013-07-11 18:56:00,87.0,74.3,29.81,NNW,339,0.0,0.0,66,0.00,,---,0.00,VWS V14.00,2013-07-11 23:56:00,
2013-07-11 19:01:00,87.1,74.4,29.82,NNW,339,0.0,3.0,66,0.00,,---,0.00,VWS V14.00,2013-07-12 00:01:00,
2013-07-11 19:07:00,87.2,75.4,29.81,NNW,339,0.0,0.0,68,0.00,,---,0.00,VWS V14.00,2013-07-12 00:07:00,
2013-07-11 19:12:00,87.2,75.4,29.82,NNW,339,1.0,3.0,68,0.00,,---,0.00,VWS V14.00,2013-07-12 00:12:00,
2013-07-11 19:17:00,87.3,75.9,29.81,NNW,339,0.0,1.0,69,0.00,,---,0.00,VWS V14.00,2013-07-12 00:17:00,
2013-07-11 19:22:00,87.2,75.8,29.82,NNW,339,0.0,1.0,69,0.00,,---,0.00,VWS V14.00,2013-07-12 00:22:00,
2013-07-11 19:27:00,87.2,76.2,29.82,NNW,339,0.0,0.0,70,0.00,,---,0.00,VWS V14.00,2013-07-12 00:27:00,
2013-07-11 19:32:00,87.1,76.6,29.82,NNW,339,0.0,0.0,71,0.00,,---,0.00,VWS V14.00,2013-07-12 00:32:00,
2013-07-11 19:37:00,86.9,76.4,29.81,NNW,339,0.0,0.0,71,0.00,,---,0.00,VWS V14.00,2013-07-12 00:37:00,
2013-07-11 19:42:00,86.7,76.6,29.82,NNW,339,0.0,0.0,72,0.00,,---,0.00,VWS V14.00,2013-07-12 00:42:00,
2013-07-11 19:47:00,86.5,76.8,29.82,NNW,339,0.0,0.0,73,0.00,,---,0.00,VWS V14.00,2013-07-12 00:47:00,
2013-07-11 19:52:00,86.5,76.8,29.82,NNW,339,0.0,0.0,73,0.00,,---,0.00,VWS V14.00,2013-07-12 00:52:00,
2013-07-11 19:57:00,86.6,76.9,29.82,NNW,339,0.0,0.0,73,0.00,,---,0.00,VWS V14.00,2013-07-12 00:57:00,
2013-07-11 20:02:00,86.7,76.6,29.83,NNW,339,0.0,0.0,72,0.00,,---,0.00,VWS V14.00,2013-07-12 01:02:00,
2013-07-11 20:07:00,86.9,76.4,29.83,NNW,339,0.0,0.0,71,0.00,,---,0.00,VWS V14.00,2013-07-12 01:07:00,
2013-07-11 20:12:00,87.1,76.1,29.83,NNW,339,0.0,0.0,70,0.00,,---,0.00,VWS V14.00,2013-07-12 01:12:00,
2013-07-11 20:17:00,87.2,76.2,29.83,NNW,339,0.0,0.0,70,0.00,,---,0.00,VWS V14.00,2013-07-12 01:17:00,
2013-07-11 20:22:00,87.3,75.9,29.83,NNW,339,0.0,0.0,69,0.00,,---,0.00,VWS V14.00,2013-07-12 01:22:00,
2013-07-11 20:27:00,87.5,76.5,29.83,NNW,339,0.0,0.0,70,0.00,,---,0.00,VWS V14.00,2013-07-12 01:27:00,
2013-07-11 20:32:00,87.4,76.4,29.83,NNW,339,2.0,4.0,70,0.00,,---,0.00,VWS V14.00,2013-07-12 01:32:00,
2013-07-11 20:37:00,87.1,76.1,29.83,NNW,339,2.0,5.0,70,0.00,,---,0.00,VWS V14.00,2013-07-12 01:37:00,
2013-07-11 20:42:00,86.7,76.2,29.83,NNW,339,2.0,5.0,71,0.00,,---,0.00,VWS V14.00,2013-07-12 01:42:00,
2013-07-11 20:47:00,86.3,76.2,29.83,NNW,339,0.0,3.0,72,0.00,,---,0.00,VWS V14.00,2013-07-12 01:47:00,
2013-07-11 20:52:00,85.8,75.7,29.84,NNW,339,0.0,0.0,72,0.00,,---,0.00,VWS V14.00,2013-07-12 01:52:00,
2013-07-11 20:57:00,85.4,75.8,29.84,NNW,339,0.0,0.0,73,0.00,,---,0.00,VWS V14.00,2013-07-12 01:57:00,
2013-07-11 21:02:00,85.0,75.8,29.84,NNW,339,0.0,0.0,74,0.00,,---,0.00,VWS V14.00,2013-07-12 02:02:00,
2013-07-11 21:07:00,84.6,75.8,29.84,NNW,339,0.0,0.0,75,0.00,,---,0.00,VWS V14.00,2013-07-12 02:07:00,
2013-07-11 21:12:00,84.2,75.4,29.84,NNW,339,0.0,0.0,75,0.00,,---,0.00,VWS V14.00,2013-07-12 02:12:00,
2013-07-11 21:17:00,83.9,75.1,29.84,NNW,339,0.0,0.0,75,0.00,,---,0.00,VWS V14.00,2013-07-12 02:17:00,
2013-07-11 21:23:00,83.6,75.2,29.84,NNW,339,0.0,0.0,76,0.00,,---,0.00,VWS V14.00,2013-07-12 02:23:00,
2013-07-11 21:28:00,83.2,75.2,29.84,NNW,339,0.0,0.0,77,0.00,,---,0.00,VWS V14.00,2013-07-12 02:28:00,
2013-07-11 21:33:00,83.0,75.1,29.83,NNW,339,0.0,0.0,77,0.00,,---,0.00,VWS V14.00,2013-07-12 02:33:00,
2013-07-11 21:38:00,82.7,75.2,29.83,NNW,339,0.0,0.0,78,0.00,,---,0.00,VWS V14.00,2013-07-12 02:38:00,
2013-07-11 21:43:00,82.0,74.8,29.84,NNW,339,0.0,0.0,79,0.00,,---,0.00,VWS V14.00,2013-07-12 02:43:00,
2013-07-11 21:48:00,81.4,74.6,29.83,NNW,339,0.0,0.0,80,0.00,,---,0.00,VWS V14.00,2013-07-12 02:48:00,
2013-07-11 21:53:00,81.0,74.2,29.84,NNW,339,0.0,0.0,80,0.00,,---,0.00,VWS V14.00,2013-07-12 02:53:00,
2013-07-11 21:58:00,80.7,74.0,29.84,NNW,339,0.0,0.0,80,0.00,,---,0.00,VWS V14.00,2013-07-12 02:58:00,
2013-07-11 22:03:00,80.4,73.7,29.84,NNW,339,0.0,0.0,80,0.00,,---,0.00,VWS V14.00,2013-07-12 03:03:00,
2013-07-11 22:08:00,80.1,73.8,29.84,NNW,339,0.0,0.0,81,0.00,,---,0.00,VWS V14.00,2013-07-12 03:08:00,
2013-07-11 22:13:00,80.0,73.3,29.84,NNW,339,0.0,0.0,80,0.00,,---,0.00,VWS V14.00,2013-07-12 03:13:00,
2013-07-11 22:18:00,80.2,73.5,29.84,NNW,339,0.0,0.0,80,0.00,,---,0.00,VWS V14.00,2013-07-12 03:18:00,
2013-07-11 22:23:00,80.3,73.9,29.84,NNW,339,0.0,1.0,81,0.00,,---,0.00,VWS V14.00,2013-07-12 03:23:00,
2013-07-11 22:28:00,80.3,73.9,29.85,NNW,339,0.0,0.0,81,0.00,,---,0.00,VWS V14.00,2013-07-12 03:28:00,
2013-07-11 22:34:00,80.3,73.6,29.85,NNW,339,0.0,0.0,80,0.00,,---,0.00,VWS V14.00,2013-07-12 03:34:00,
2013-07-11 22:39:00,80.3,73.6,29.85,NNW,339,0.0,0.0,80,0.00,,---,0.00,VWS V14.00,2013-07-12 03:39:00,
2013-07-11 22:44:00,80.2,73.8,29.85,NNW,339,0.0,0.0,81,0.00,,---,0.00,VWS V14.00,2013-07-12 03:44:00,
2013-07-11 22:49:00,80.0,74.0,29.85,NNW,339,0.0,0.0,82,0.00,,---,0.00,VWS V14.00,2013-07-12 03:49:00,
2013-07-11 22:54:00,79.9,73.9,29.85,NNW,339,0.0,0.0,82,0.00,,---,0.00,VWS V14.00,2013-07-12 03:54:00,
2013-07-11 22:59:00,79.7,73.4,29.85,NNW,339,0.0,0.0,81,0.00,,---,0.00,VWS V14.00,2013-07-12 03:59:00,
2013-07-11 23:01:00,79.6,72.9,29.86,NNW,339,0.0,0.0,80,0.00,,---,0.00,VWS V14.00,2013-07-12 04:01:00,
2013-07-11 23:06:00,79.4,72.7,29.85,NNW,339,0.0,0.0,80,0.00,,---,0.00,VWS V14.00,2013-07-12 04:06:00,
2013-07-11 23:11:00,79.4,72.7,29.86,NNW,339,0.0,0.0,80,0.00,,---,0.00,VWS V14.00,2013-07-12 04:11:00,
2013-07-11 23:16:00,79.4,72.7,29.86,NNW,339,0.0,0.0,80,0.00,,---,0.00,VWS V14.00,2013-07-12 04:16:00,
2013-07-11 23:21:00,79.4,72.7,29.86,NNW,339,0.0,0.0,80,0.00,,---,0.00,VWS V14.00,2013-07-12 04:21:00,
2013-07-11 23:26:00,79.4,72.7,29.85,NNW,339,0.0,0.0,80,0.00,,---,0.00,VWS V14.00,2013-07-12 04:26:00,
2013-07-11 23:31:00,79.4,72.7,29.85,NNW,339,0.0,0.0,80,0.00,,---,0.00,VWS V14.00,2013-07-12 04:31:00,
2013-07-11 23:36:00,79.5,72.8,29.86,NNW,339,2.0,3.0,80,0.00,,---,0.00,VWS V14.00,2013-07-12 04:36:00,
2013-07-11 23:41:00,79.5,72.8,29.86,NNW,339,0.0,3.0,80,0.00,,---,0.00,VWS V14.00,2013-07-12 04:41:00,
2013-07-11 23:46:00,79.5,72.4,29.86,NNW,339,2.0,5.0,79,0.00,,---,0.00,VWS V14.00,2013-07-12 04:46:00,
2013-07-11 23:51:00,79.6,72.5,29.86,NNW,339,4.0,4.0,79,0.00,,---,0.00,VWS V14.00,2013-07-12 04:51:00,
2013-07-11 23:56:00,79.7,72.6,29.86,NNW,339,4.0,6.0,79,0.00,,---,0.00,VWS V14.00,2013-07-12 04:56:00,